Simultaneous Nadir Overpasses (SNOs) Predictions

Prediction of SNOs between METOP-B and NOAA-19 Satellite Orbit:

Table of predicted SNOs for the next 14.0 days since TLE Epoch: 8/19/2016
Index Date (METOP-B) Time (METOP-B) Lat,Lon (METOP-B) SZA (METOP-B ) Date (NOAA-19) Time (NOAA-19) Lat,Lon (NOAA-19) SZA (NOAA-19 ) Distance(km) Time Diff (sec)
1 08/29/2016 03:45:46 76.32, 125.16 67.03 08/29/2016 03:44:34 76.29, 125.14 67.00 3.55 72
2 08/29/2016 04:36:29 -76.29, -67.65 113.00 08/29/2016 04:35:39 -76.27, -67.57 113.01 2.64 50
3 08/29/2016 05:27:09 76.26, 99.60 67.00 08/29/2016 05:26:36 76.29, 99.62 67.03 3.66 33
4 08/29/2016 06:17:51 -76.27, -93.04 112.99 08/29/2016 06:17:41 -76.27, -93.08 112.98 0.94 10
5 08/29/2016 07:08:31 76.24, 74.20 67.00 08/29/2016 07:08:37 76.25, 74.28 67.01 2.28 6
6 08/29/2016 07:59:13 -76.25,-118.44 112.98 08/29/2016 07:59:42 -76.23,-118.42 113.00 2.58 29
7 08/29/2016 08:49:53 76.23, 48.80 67.01 08/29/2016 08:50:39 76.25, 48.77 67.04 2.87 46
8 08/29/2016 09:40:35 -76.24,-143.84 112.97 08/29/2016 09:41:44 -76.23,-143.93 112.97 2.48 69
9 08/29/2016 10:31:25 75.75, 21.84 66.55 08/29/2016 10:32:31 75.81, 24.87 66.63 83.06 66




NCC Satellite Simultaneous Nadir Overpasses (SNOs) Prediction Service
